SCP
0 0 0 0 0 0 0 0 -0 0 0 0 0 -0 -0 0 0 0 -0 -0 -0 -0 -0 -0 -0 -0 -0 0 0 0 0 0 0 0 0 0 0 0 0 0 0 0 0 0 0 0 0 0 0
-0 0 0 0 0 0 0 0 0 0 0 -0 0 -0 -0 0 0 -0 -0 -0 -0 -0 0 0 -0 -0 -0 0 0 0 0 0 0 0 0 0 0 0 0 0 0 0 0 0 0 0 0 0 0
0 0 0 0 0 0 0 0 0 0 0 -0 0 0 0 0 -0 0 -1 -1 -0 -0 -0 -0 -0 -0 -0 -0 0 0 0 0 0 0 0 0 0 0 0 0 0 0 0 0 0 0 0 0 0
0 0 0 0 0 0 0 0 0 0 -0 0 -0 0 0 0 0 -0 -1 -1 -0 -0 -0 -0 -0 -0 -0 -0 0 0 0 0 0 0 0 0 0 0 0 0 0 0 0 0 0 0 0 0 0
0 0 0 0 -0 0 0 -0 0 -0 0 -0 -0 0 0 0 -0 -1 -0 -0 -0 -0 -0 -0 -0 -0 0 0 0 0 0 0 0 0 0 0 0 0 0 0 0 0 0 0 0 0 -0 -0 -0
0 -0 -0 0 -0 0 -0 -0 -0 -0 -0 -0 -0 -0 0 -0 -0 -0 -0 -0 -0 -0 -0 -0 -0 -0 0 0 0 0 0 0 0 0 0 0 0 0 0 0 0 0 0 0 0 -0 -0 -0 -0
0 0 -0 -0 0 -0 -0 0 0 0 -0 -0 -0 0 -0 -0 -0 -0 -0 -0 -0 -0 -0 0 0 0 0 0 0 0 0 0 0 0 0 0 0 0 0 0 -0 0 0 0 -0 -0 -0 0 0
0 0 -0 -0 0 -0 0 -0 -0 -0 0 0 0 0 -0 0 -0 0 -0 -1 -1 -0 -0 0 0 0 0 0 0 0 0 0 0 0 0 0 0 0 0 -0 -0 0 -0 -0 -0 -0 -0 -0 0
-0 0 0 0 0 0 -0 -0 0 -0 -0 -0 0 0 -0 -0 0 -0 -0 0 -1 -0 -0 0 0 0 0 0 0 0 0 0 0 0 0 0 0 0 -0 0 0 0 0 0 0 -0 -0 0 -0
0 0 0 0 -0 -0 -0 -0 -0 0 -0 0 0 0 0 0 -0 0 -0 0 -0 -0 -0 0 0 0 0 0 0 0 0 0 0 0 0 0 0 0 0 0 0 0 0 0 0 0 0 0 0
0 0 0 -0 -0 -0 -0 -0 0 0 0 0 -0 0 -0 -0 -0 0 0 0 0 -0 0 0 0 0 0 0 0 0 0 0 0 -0 0 0 0 0 0 0 0 0 0 0 0 0 0 0 0
0 -0 -0 -0 -0 0 0 -0 -0 0 0 0 0 0 0 -0 0 0 0 0 0 0 0 0 0 0 0 0 0 0 0 0 0 0 0 0 0 0 0 0 0 0 0 0 0 0 0 0 0
0 0 -0 0 -0 -0 -0 -0 0 0 0 0 0 0 -0 -0 0 -0 0 0 0 1 1 1 0 0 0 0 0 0 0 0 0 0 0 0 0 0 0 0 0 0 0 0 0 0 0 0 0
0 -0 -0 -0 -0 -0 0 0 0 0 0 -0 0 0 -0 0 0 0 0 1 1 1 1 1 1 1 0 0 0 0 0 0 0 0 0 0 0 0 0 0 0 0 0 0 0 0 0 0 0
-0 0 0 0 0 0 0 -0 0 0 0 0 0 1 0 1 2 1 1 1 1 1 1 1 1 1 1 0 0 0 0 0 0 0 0 0 0 0 0 0 0 0 0 0 0 0 0 0 0
-0 0 0 0 0 0 0 -0 0 0 0 0 1 1 1 3 3 2 1 2 2 1 1 1 2 2 1 0 0 0 0 0 0 0 0 0 0 0 0 0 0 0 0 0 0 0 0 0 0
-0 0 0 -0 -0 0 0 0 -0 0 0 0 1 3 3 3 2 2 2 2 2 1 1 1 1 1 1 1 0 0 0 0 0 0 0 0 0 0 0 0 0 0 0 0 0 0 0 0 0
0 -0 0 -0 0 0 0 0 0 0 0 0 0 2 3 0 1 1 1 1 1 1 1 1 2 1 1 1 1 0 0 0 0 0 0 0 0 0 0 0 0 0 0 0 0 0 0 0 0
-0 -0 -0 0 0 0 0 -0 0 0 0 0 0 0 1 0 3 1 1 1 1 1 1 1 1 1 1 1 0 0 0 0 0 0 0 0 0 0 0 0 0 0 0 0 0 0 0 0 0
-0 -0 -0 0 0 0 0 0 0 0 0 0 0 0 0 0 -0 1 1 1 1 1 1 1 1 1 0 0 0 0 0 0 0 0 0 0 0 0 0 0 0 0 0 0 0 0 0 0 0
-0 -0 0 -0 -0 0 0 0 0 0 0 0 0 0 0 0 0 0 1 1 1 1 0 0 0 0 0 0 0 0 0 0 0 0 0 0 0 0 0 0 0 0 0 0 0 0 0 0 0
0 -0 -0 -0 0 -0 0 -0 0 0 0 0 0 0 1 0 0 0 0 0 0 0 0 0 0 0 0 0 0 0 0 0 0 0 0 0 0 0 0 0 0 0 0 0 0 0 0 0 0
-0 0 -0 -0 -0 -0 0 0 0 0 0 0 0 0 0 0 1 0 0 -0 0 0 0 0 0 0 0 0 0 0 0 0 0 0 0 0 0 0 0 0 0 0 0 0 0 0 0 0 0
-0 0 0 0 0 0 0 0 0 0 0 0 0 0 0 1 1 0 0 -0 0 0 0 0 0 0 0 0 0 0 0 0 0 0 0 0 0 0 0 0 0 0 0 0 0 0 0 0 0
-0 0 0 0 0 0 -0 0 0 0 0 0 0 0 0 0 0 -0 0 -0 0 0 0 0 0 0 0 0 0 0 0 0 0 0 0 0 0 0 0 0 0 0 0 0 0 0 0 0 0
0 0 0 0 0 -0 0 0 0 0 0 0 0 0 0 0 -0 -0 -0 -0 0 0 0 0 0 0 0 0 0 0 0 0 0 0 0 0 0 0 0 0 0 0 0 0 0 0 0 0 0
0 0 0 0 0 0 0 0 0 0 0 0 0 -0 0 0 0 0 -0 0 0 0 -0 0 0 0 0 0 0 0 0 0 0 0 0 0 0 0 0 0 0 0 0 0 0 0 0 0 0
0 0 0 0 0 0 0 0 0 0 0 0 0 0 0 0 0 0 0 -0 0 0 0 0 0 0 0 0 0 0 0 0 0 0 0 0 0 0 0 0 0 0 0 0 0 0 0 0 0
0 0 0 0 0 0 0 0 0 0 0 0 0 0 0 0 0 0 -0 0 0 0 0 0 0 0 0 0 0 0 0 0 0 0 0 0 0 0 0 0 0 0 0 0 0 0 0 0 0
0 0 0 0 0 0 0 0 0 0 0 0 0 0 0 0 0 -0 0 0 0 0 0 0 0 0 0 0 0 0 0 0 0 0 0 0 0 0 0 0 0 0 0 0 0 0 0 0 0
Wind_Speed_500mb
17 11 14 10 1 6 4 6 13 2 8 23 27 41 27 25 7 9 45 38 33 30 41 39 36 32 27 23 19 17 16 19 17 11 7 6 7 7 6 6 8 9 10 10 9 9 9 10 11
17 13 26 15 5 3 5 9 24 1 19 19 36 51 41 14 22 51 39 30 26 26 38 38 35 31 27 23 21 19 17 14 10 8 7 6 6 6 6 7 7 8 9 9 10 10 10 11 12
14 9 11 6 6 10 5 13 14 8 16 27 15 36 17 26 43 49 30 37 34 24 37 38 34 30 26 22 20 17 15 11 10 10 8 7 7 7 9 8 7 7 9 10 10 12 12 12 13
25 13 15 8 30 15 18 26 27 27 11 9 46 20 18 18 27 35 39 36 26 22 36 38 34 30 27 25 21 16 15 12 10 9 7 7 8 8 7 6 7 9 10 10 11 12 13 14 14
23 14 8 9 21 10 9 42 46 17 15 50 46 14 16 20 24 27 43 32 28 27 34 34 30 30 30 26 23 20 18 14 12 10 10 9 8 6 5 7 10 11 11 12 14 15 18 20 20
13 12 8 15 30 7 9 25 27 20 33 54 48 29 13 25 35 42 39 34 25 35 27 20 26 27 26 24 20 18 16 14 12 12 12 10 6 5 8 9 11 13 15 17 20 23 25 23 21
12 9 6 24 28 29 15 8 12 13 13 31 38 13 29 31 32 48 39 38 24 21 16 16 27 27 23 18 18 16 16 15 14 15 12 8 11 11 13 11 20 22 24 23 23 26 27 25 24
20 9 4 9 28 41 32 40 1 25 6 43 37 14 16 43 44 48 51 46 48 34 22 20 28 28 20 22 19 17 15 15 17 16 12 13 15 13 11 19 23 25 20 24 24 25 25 24 24
27 5 1 9 6 19 81 30 25 27 51 56 52 51 24 40 50 49 49 51 52 35 31 29 29 25 23 23 16 16 17 20 20 18 19 19 11 7 6 17 14 18 15 23 16 21 18 23 20
16 8 20 24 35 26 54 32 15 10 55 50 75 46 31 41 51 56 57 56 61 49 44 34 36 27 25 23 15 10 17 21 20 20 20 14 11 2 6 16 18 17 16 20 17 26 18 17 22
22 15 19 40 72 54 33 40 34 23 10 60 52 30 48 49 53 53 54 48 60 52 49 38 34 25 16 20 21 11 22 21 23 25 19 10 7 4 5 9 4 5 14 9 21 16 22 30 27
14 35 40 41 70 19 24 59 34 18 11 46 27 29 58 62 56 55 45 49 52 42 46 38 30 29 26 24 16 12 22 22 18 13 16 10 21 18 18 16 13 14 18 19 23 31 34 36 35
24 29 55 48 30 53 56 35 20 23 23 35 41 57 66 61 54 44 41 52 58 43 39 30 27 34 29 29 29 23 30 29 24 21 27 30 27 27 23 26 22 24 26 31 36 38 33 32 35
4 40 53 22 44 40 14 2 15 24 28 48 51 61 64 70 55 42 29 59 55 51 38 25 35 33 34 40 38 24 43 39 40 32 30 27 25 30 30 28 29 29 33 37 32 23 32 32 31
35 12 12 29 30 10 29 16 12 23 9 27 22 39 59 50 52 54 40 43 44 44 39 28 41 39 41 40 48 35 49 46 38 32 32 32 36 37 33 28 31 34 25 16 20 23 29 30 38
14 11 10 3 8 15 5 15 8 20 27 30 45 39 40 39 37 39 38 37 37 37 30 32 36 33 32 34 40 40 41 39 36 36 38 35 27 27 23 22 24 14 12 16 24 28 32 37 45
11 7 7 9 17 4 5 9 22 39 45 38 55 54 47 39 35 36 38 39 34 30 28 28 29 30 25 31 32 42 40 42 38 33 24 18 15 14 12 11 9 10 11 20 26 35 44 52 46
8 14 2 19 8 6 11 19 20 39 49 35 22 42 34 24 44 44 42 34 30 28 31 33 30 30 28 25 26 32 35 31 23 15 19 15 13 14 6 1 4 10 20 30 38 43 37 42 44
13 21 25 35 18 12 16 31 30 46 41 36 42 40 43 52 55 50 41 42 37 35 31 29 28 28 20 24 26 24 21 17 14 12 12 8 5 11 10 15 19 23 27 34 30 34 40 38 28
30 31 43 40 37 20 33 33 42 10 10 38 52 29 43 33 63 45 50 42 37 31 27 26 25 24 22 22 23 19 20 14 10 13 8 15 12 13 18 25 25 30 22 21 25 32 33 32 27
38 35 26 10 12 8 9 9 14 4 31 23 13 29 26 6 30 45 42 40 35 26 26 21 29 28 25 21 21 24 21 18 16 13 21 20 14 17 25 25 18 22 20 17 20 26 30 29 25
19 13 16 22 20 9 8 16 7 5 3 5 25 28 30 26 56 53 51 48 33 32 30 28 31 30 26 22 19 18 16 15 19 13 15 4 15 17 22 20 20 29 25 18 17 20 26 21 27
14 5 15 14 19 10 10 9 10 11 4 13 19 14 21 45 54 36 31 40 34 41 38 38 31 25 23 22 20 22 16 19 17 13 5 6 3 13 17 21 23 34 29 16 17 17 19 20 27
18 13 12 11 7 6 11 10 13 12 11 27 47 67 31 30 57 36 35 47 35 34 36 33 27 27 22 18 17 19 21 26 29 23 12 11 2 15 18 18 26 36 26 19 15 18 18 18 31
24 23 10 11 10 11 5 10 8 19 17 13 27 76 26 39 49 32 54 47 36 37 39 33 28 29 24 16 18 17 14 14 12 13 8 10 8 5 10 21 33 32 23 19 17 17 17 21 30
11 14 6 8 6 10 15 5 6 6 11 29 44 47 33 22 50 66 65 48 40 41 42 38 37 34 22 17 12 17 14 6 3 8 12 16 15 9 16 27 32 30 22 20 20 19 20 23 28
10 5 11 1 7 7 3 7 3 10 15 28 33 42 48 29 24 51 60 50 48 39 39 41 39 29 22 16 11 9 7 1 15 13 14 19 22 23 27 30 22 25 24 21 19 22 26 26 26
9 7 5 4 4 7 3 9 3 14 10 17 32 41 30 26 28 55 39 55 46 39 45 44 29 19 24 13 11 14 7 9 16 25 25 12 17 18 18 17 23 28 26 24 23 26 30 26 27
17 14 7 7 7 5 5 4 7 5 8 9 15 17 35 17 23 43 23 54 57 57 49 26 13 23 25 17 19 16 10 7 15 22 21 17 17 20 21 20 23 26 32 27 26 32 32 30 28
21 6 11 9 12 8 8 2 9 6 1 7 22 16 34 33 62 35 25 39 39 32 32 25 21 20 14 23 24 18 20 17 17 28 20 13 19 21 21 22 24 29 34 32 31 36 33 32 34
Wind_Direction_500mb
279 267 295 296 263 75 262 3 262 84 45 72 71 94 87 51 43 147 144 179 183 161 168 166 163 161 162 161 159 155 152 154 165 163 115 107 105 95 76 58 35 23 14 9 357 352 341 330 321
311 284 297 280 115 296 143 106 280 132 136 150 122 100 85 76 103 132 148 192 187 168 172 170 166 166 166 165 164 166 160 163 167 151 134 120 99 77 61 52 48 39 28 14 359 353 350 339 333
313 261 267 153 268 212 141 211 216 223 173 185 91 88 75 121 121 146 189 186 182 174 179 174 170 172 173 171 172 167 160 166 153 149 140 132 108 91 75 60 48 38 32 23 10 359 356 350 345
3 340 260 118 245 265 164 184 207 245 183 173 114 82 78 134 155 172 177 178 185 188 177 173 171 173 175 178 177 169 165 163 151 144 132 112 106 97 88 73 41 25 26 22 16 11 3 1 358
29 23 2 308 235 96 102 176 198 159 176 115 103 97 91 102 144 163 164 170 184 176 171 169 172 175 176 178 177 171 166 162 160 153 139 128 115 104 72 43 35 22 18 16 15 7 1 1 1
55 55 29 323 315 55 161 151 155 107 106 112 109 111 101 147 145 162 153 151 161 136 145 163 182 187 186 182 177 173 166 164 165 147 136 135 122 78 47 40 39 22 13 13 17 21 23 15 6
108 112 232 290 337 347 323 59 22 94 170 125 133 93 140 157 145 148 148 164 179 175 163 173 195 197 196 188 179 178 177 173 154 149 148 127 93 89 53 70 32 33 42 31 42 33 25 19 15
123 129 103 30 354 297 305 312 48 137 66 95 49 16 172 174 150 146 156 182 189 187 201 195 192 195 202 190 185 186 182 168 164 157 144 126 103 107 67 56 50 45 43 38 32 22 21 11 16
106 63 153 178 260 291 295 313 2 37 66 71 82 23 187 165 154 157 163 172 194 196 214 191 174 177 180 169 175 189 180 179 170 153 134 127 139 104 84 23 29 32 19 19 13 2 5 352 352
114 341 202 218 193 199 255 294 69 355 93 81 112 153 169 168 167 169 176 178 188 197 198 187 169 167 156 169 177 183 193 180 168 156 143 148 144 153 21 1 344 345 347 350 357 341 341 338 335
160 191 194 224 222 212 214 255 188 184 123 156 170 187 180 180 187 178 186 186 189 193 182 194 180 176 185 178 176 197 177 175 171 161 153 129 152 176 285 332 353 310 321 295 337 340 322 318 315
127 215 176 235 228 204 224 244 250 188 204 199 199 171 170 181 191 192 192 182 185 172 176 180 176 170 182 179 169 173 180 181 192 186 169 187 204 211 209 241 292 287 287 303 307 299 305 317 299
162 190 199 223 250 255 246 261 162 91 115 155 164 164 172 183 187 193 200 188 184 169 162 176 182 182 183 182 186 207 189 194 197 203 202 211 224 229 234 240 255 263 280 285 292 291 309 317 311
32 181 205 243 201 256 293 7 100 144 145 154 167 173 176 186 181 178 158 172 179 172 165 175 183 175 178 179 196 212 194 188 198 218 224 226 257 237 275 254 267 277 294 300 307 307 314 312 314
340 43 44 34 13 20 357 334 186 163 138 153 160 156 185 172 175 172 170 162 180 183 181 200 180 192 200 209 216 210 194 204 219 228 228 259 277 249 286 257 275 299 316 342 338 307 294 294 295
31 48 9 5 328 226 319 292 296 212 181 200 170 161 151 151 161 170 171 179 171 181 193 206 218 208 225 222 214 209 212 216 225 237 258 270 261 275 258 278 300 318 356 318 292 292 294 297 303
14 276 305 303 306 343 150 256 272 237 220 225 169 162 155 150 164 173 171 182 182 183 196 209 216 227 218 216 225 222 221 229 246 260 247 240 271 298 298 320 330 6 307 286 288 297 303 306 311
269 287 7 274 251 250 299 283 248 229 237 216 144 118 114 112 175 170 171 169 170 184 191 194 201 212 224 224 211 206 215 227 240 240 212 236 273 259 77 350 176 250 272 282 289 296 314 318 319
271 263 271 267 209 225 237 251 253 234 239 73 84 92 159 214 181 160 169 184 188 193 201 209 212 211 210 178 182 182 197 206 204 198 221 196 123 138 202 254 257 275 296 299 306 315 320 327 338
243 250 260 266 227 201 233 239 246 302 122 129 104 96 101 122 354 160 168 179 200 204 195 188 196 187 159 155 151 162 160 167 165 161 172 139 151 211 253 271 284 297 309 298 310 321 330 344 3
247 237 264 304 303 266 235 321 123 99 107 119 120 129 149 113 248 216 171 178 186 187 173 174 162 155 160 153 163 165 169 170 168 164 159 169 221 291 295 306 309 345 326 309 323 329 347 346 358
256 304 345 332 334 293 314 285 211 169 110 167 165 186 173 157 175 200 173 186 186 176 165 172 171 162 156 160 162 173 168 170 165 155 161 224 277 304 309 332 336 343 331 315 329 350 350 2 1
261 336 287 286 286 324 296 75 242 105 4 301 267 228 192 157 165 177 200 196 165 167 170 186 185 165 157 168 163 173 179 161 169 168 205 227 296 282 289 312 328 335 326 322 328 353 3 6 352
303 329 335 318 291 347 263 172 358 350 303 356 359 344 224 178 171 178 216 200 164 169 180 186 179 161 151 157 158 162 157 159 149 143 147 116 252 233 264 301 320 327 319 319 323 342 346 352 351
12 3 327 335 348 247 359 79 230 338 348 356 6 19 166 196 164 237 211 175 161 178 181 185 169 143 142 143 153 162 151 150 159 193 192 228 258 211 260 307 316 319 320 324 326 327 340 324 328
276 157 241 293 272 290 350 101 283 249 343 353 37 54 69 40 187 209 186 174 166 175 172 164 145 138 147 143 118 131 139 150 241 277 279 260 249 271 300 301 305 316 321 325 325 320 323 317 320
247 263 203 223 356 12 237 55 350 351 355 10 33 25 21 2 219 322 175 174 172 173 167 150 140 144 149 150 104 131 52 284 283 292 315 226 232 251 279 286 309 323 323 324 326 318 321 323 310
17 266 350 34 224 272 274 302 207 328 359 5 7 15 45 41 49 330 191 161 160 165 153 149 143 135 148 190 159 182 199 289 339 333 330 280 275 288 313 320 320 329 331 326 319 311 316 321 319
318 317 353 111 137 185 253 233 353 24 56 359 7 74 79 125 100 26 59 134 140 135 148 147 168 158 165 190 184 183 187 225 299 323 320 278 281 297 307 313 310 310 326 322 304 302 315 317 323
254 232 139 126 282 209 184 207 252 225 356 269 84 114 121 113 124 157 135 127 133 152 169 171 177 179 177 190 202 207 220 250 301 323 328 294 272 285 290 295 297 298 308 313 309 307 308 309 308
Wind_Speed_850mb
17 11 14 10 1 6 4 6 13 2 8 23 27 41 27 25 7 9 45 38 33 30 41 39 36 32 27 23 19 17 16 19 17 11 7 6 7 7 6 6 8 9 10 10 9 9 9 10 11
17 13 26 15 5 3 5 9 24 1 19 19 36 51 41 14 22 51 39 30 26 26 38 38 35 31 27 23 21 19 17 14 10 8 7 6 6 6 6 7 7 8 9 9 10 10 10 11 12
14 9 11 6 6 10 5 13 14 8 16 27 15 36 17 26 43 49 30 37 34 24 37 38 34 30 26 22 20 17 15 11 10 10 8 7 7 7 9 8 7 7 9 10 10 12 12 12 13
25 13 15 8 30 15 18 26 27 27 11 9 46 20 18 18 27 35 39 36 26 22 36 38 34 30 27 25 21 16 15 12 10 9 7 7 8 8 7 6 7 9 10 10 11 12 13 14 14
23 14 8 9 21 10 9 42 46 17 15 50 46 14 16 20 24 27 43 32 28 27 34 34 30 30 30 26 23 20 18 14 12 10 10 9 8 6 5 7 10 11 11 12 14 15 18 20 20
13 12 8 15 30 7 9 25 27 20 33 54 48 29 13 25 35 42 39 34 25 35 27 20 26 27 26 24 20 18 16 14 12 12 12 10 6 5 8 9 11 13 15 17 20 23 25 23 21
12 9 6 24 28 29 15 8 12 13 13 31 38 13 29 31 32 48 39 38 24 21 16 16 27 27 23 18 18 16 16 15 14 15 12 8 11 11 13 11 20 22 24 23 23 26 27 25 24
20 9 4 9 28 41 32 40 1 25 6 43 37 14 16 43 44 48 51 46 48 34 22 20 28 28 20 22 19 17 15 15 17 16 12 13 15 13 11 19 23 25 20 24 24 25 25 24 24
27 5 1 9 6 19 81 30 25 27 51 56 52 51 24 40 50 49 49 51 52 35 31 29 29 25 23 23 16 16 17 20 20 18 19 19 11 7 6 17 14 18 15 23 16 21 18 23 20
16 8 20 24 35 26 54 32 15 10 55 50 75 46 31 41 51 56 57 56 61 49 44 34 36 27 25 23 15 10 17 21 20 20 20 14 11 2 6 16 18 17 16 20 17 26 18 17 22
22 15 19 40 72 54 33 40 34 23 10 60 52 30 48 49 53 53 54 48 60 52 49 38 34 25 16 20 21 11 22 21 23 25 19 10 7 4 5 9 4 5 14 9 21 16 22 30 27
14 35 40 41 70 19 24 59 34 18 11 46 27 29 58 62 56 55 45 49 52 42 46 38 30 29 26 24 16 12 22 22 18 13 16 10 21 18 18 16 13 14 18 19 23 31 34 36 35
24 29 55 48 30 53 56 35 20 23 23 35 41 57 66 61 54 44 41 52 58 43 39 30 27 34 29 29 29 23 30 29 24 21 27 30 27 27 23 26 22 24 26 31 36 38 33 32 35
4 40 53 22 44 40 14 2 15 24 28 48 51 61 64 70 55 42 29 59 55 51 38 25 35 33 34 40 38 24 43 39 40 32 30 27 25 30 30 28 29 29 33 37 32 23 32 32 31
35 12 12 29 30 10 29 16 12 23 9 27 22 39 59 50 52 54 40 43 44 44 39 28 41 39 41 40 48 35 49 46 38 32 32 32 36 37 33 28 31 34 25 16 20 23 29 30 38
14 11 10 3 8 15 5 15 8 20 27 30 45 39 40 39 37 39 38 37 37 37 30 32 36 33 32 34 40 40 41 39 36 36 38 35 27 27 23 22 24 14 12 16 24 28 32 37 45
11 7 7 9 17 4 5 9 22 39 45 38 55 54 47 39 35 36 38 39 34 30 28 28 29 30 25 31 32 42 40 42 38 33 24 18 15 14 12 11 9 10 11 20 26 35 44 52 46
8 14 2 19 8 6 11 19 20 39 49 35 22 42 34 24 44 44 42 34 30 28 31 33 30 30 28 25 26 32 35 31 23 15 19 15 13 14 6 1 4 10 20 30 38 43 37 42 44
13 21 25 35 18 12 16 31 30 46 41 36 42 40 43 52 55 50 41 42 37 35 31 29 28 28 20 24 26 24 21 17 14 12 12 8 5 11 10 15 19 23 27 34 30 34 40 38 28
30 31 43 40 37 20 33 33 42 10 10 38 52 29 43 33 63 45 50 42 37 31 27 26 25 24 22 22 23 19 20 14 10 13 8 15 12 13 18 25 25 30 22 21 25 32 33 32 27
38 35 26 10 12 8 9 9 14 4 31 23 13 29 26 6 30 45 42 40 35 26 26 21 29 28 25 21 21 24 21 18 16 13 21 20 14 17 25 25 18 22 20 17 20 26 30 29 25
19 13 16 22 20 9 8 16 7 5 3 5 25 28 30 26 56 53 51 48 33 32 30 28 31 30 26 22 19 18 16 15 19 13 15 4 15 17 22 20 20 29 25 18 17 20 26 21 27
14 5 15 14 19 10 10 9 10 11 4 13 19 14 21 45 54 36 31 40 34 41 38 38 31 25 23 22 20 22 16 19 17 13 5 6 3 13 17 21 23 34 29 16 17 17 19 20 27
18 13 12 11 7 6 11 10 13 12 11 27 47 67 31 30 57 36 35 47 35 34 36 33 27 27 22 18 17 19 21 26 29 23 12 11 2 15 18 18 26 36 26 19 15 18 18 18 31
24 23 10 11 10 11 5 10 8 19 17 13 27 76 26 39 49 32 54 47 36 37 39 33 28 29 24 16 18 17 14 14 12 13 8 10 8 5 10 21 33 32 23 19 17 17 17 21 30
11 14 6 8 6 10 15 5 6 6 11 29 44 47 33 22 50 66 65 48 40 41 42 38 37 34 22 17 12 17 14 6 3 8 12 16 15 9 16 27 32 30 22 20 20 19 20 23 28
10 5 11 1 7 7 3 7 3 10 15 28 33 42 48 29 24 51 60 50 48 39 39 41 39 29 22 16 11 9 7 1 15 13 14 19 22 23 27 30 22 25 24 21 19 22 26 26 26
9 7 5 4 4 7 3 9 3 14 10 17 32 41 30 26 28 55 39 55 46 39 45 44 29 19 24 13 11 14 7 9 16 25 25 12 17 18 18 17 23 28 26 24 23 26 30 26 27
17 14 7 7 7 5 5 4 7 5 8 9 15 17 35 17 23 43 23 54 57 57 49 26 13 23 25 17 19 16 10 7 15 22 21 17 17 20 21 20 23 26 32 27 26 32 32 30 28
21 6 11 9 12 8 8 2 9 6 1 7 22 16 34 33 62 35 25 39 39 32 32 25 21 20 14 23 24 18 20 17 17 28 20 13 19 21 21 22 24 29 34 32 31 36 33 32 34
Wind_Direction_850mb
279 267 295 296 263 75 262 3 262 84 45 72 71 94 87 51 43 147 144 179 183 161 168 166 163 161 162 161 159 155 152 154 165 163 115 107 105 95 76 58 35 23 14 9 357 352 341 330 321
311 284 297 280 115 296 143 106 280 132 136 150 122 100 85 76 103 132 148 192 187 168 172 170 166 166 166 165 164 166 160 163 167 151 134 120 99 77 61 52 48 39 28 14 359 353 350 339 333
313 261 267 153 268 212 141 211 216 223 173 185 91 88 75 121 121 146 189 186 182 174 179 174 170 172 173 171 172 167 160 166 153 149 140 132 108 91 75 60 48 38 32 23 10 359 356 350 345
3 340 260 118 245 265 164 184 207 245 183 173 114 82 78 134 155 172 177 178 185 188 177 173 171 173 175 178 177 169 165 163 151 144 132 112 106 97 88 73 41 25 26 22 16 11 3 1 358
29 23 2 308 235 96 102 176 198 159 176 115 103 97 91 102 144 163 164 170 184 176 171 169 172 175 176 178 177 171 166 162 160 153 139 128 115 104 72 43 35 22 18 16 15 7 1 1 1
55 55 29 323 315 55 161 151 155 107 106 112 109 111 101 147 145 162 153 151 161 136 145 163 182 187 186 182 177 173 166 164 165 147 136 135 122 78 47 40 39 22 13 13 17 21 23 15 6
108 112 232 290 337 347 323 59 22 94 170 125 133 93 140 157 145 148 148 164 179 175 163 173 195 197 196 188 179 178 177 173 154 149 148 127 93 89 53 70 32 33 42 31 42 33 25 19 15
123 129 103 30 354 297 305 312 48 137 66 95 49 16 172 174 150 146 156 182 189 187 201 195 192 195 202 190 185 186 182 168 164 157 144 126 103 107 67 56 50 45 43 38 32 22 21 11 16
106 63 153 178 260 291 295 313 2 37 66 71 82 23 187 165 154 157 163 172 194 196 214 191 174 177 180 169 175 189 180 179 170 153 134 127 139 104 84 23 29 32 19 19 13 2 5 352 352
114 341 202 218 193 199 255 294 69 355 93 81 112 153 169 168 167 169 176 178 188 197 198 187 169 167 156 169 177 183 193 180 168 156 143 148 144 153 21 1 344 345 347 350 357 341 341 338 335
160 191 194 224 222 212 214 255 188 184 123 156 170 187 180 180 187 178 186 186 189 193 182 194 180 176 185 178 176 197 177 175 171 161 153 129 152 176 285 332 353 310 321 295 337 340 322 318 315
127 215 176 235 228 204 224 244 250 188 204 199 199 171 170 181 191 192 192 182 185 172 176 180 176 170 182 179 169 173 180 181 192 186 169 187 204 211 209 241 292 287 287 303 307 299 305 317 299
162 190 199 223 250 255 246 261 162 91 115 155 164 164 172 183 187 193 200 188 184 169 162 176 182 182 183 182 186 207 189 194 197 203 202 211 224 229 234 240 255 263 280 285 292 291 309 317 311
32 181 205 243 201 256 293 7 100 144 145 154 167 173 176 186 181 178 158 172 179 172 165 175 183 175 178 179 196 212 194 188 198 218 224 226 257 237 275 254 267 277 294 300 307 307 314 312 314
340 43 44 34 13 20 357 334 186 163 138 153 160 156 185 172 175 172 170 162 180 183 181 200 180 192 200 209 216 210 194 204 219 228 228 259 277 249 286 257 275 299 316 342 338 307 294 294 295
31 48 9 5 328 226 319 292 296 212 181 200 170 161 151 151 161 170 171 179 171 181 193 206 218 208 225 222 214 209 212 216 225 237 258 270 261 275 258 278 300 318 356 318 292 292 294 297 303
14 276 305 303 306 343 150 256 272 237 220 225 169 162 155 150 164 173 171 182 182 183 196 209 216 227 218 216 225 222 221 229 246 260 247 240 271 298 298 320 330 6 307 286 288 297 303 306 311
269 287 7 274 251 250 299 283 248 229 237 216 144 118 114 112 175 170 171 169 170 184 191 194 201 212 224 224 211 206 215 227 240 240 212 236 273 259 77 350 176 250 272 282 289 296 314 318 319
271 263 271 267 209 225 237 251 253 234 239 73 84 92 159 214 181 160 169 184 188 193 201 209 212 211 210 178 182 182 197 206 204 198 221 196 123 138 202 254 257 275 296 299 306 315 320 327 338
243 250 260 266 227 201 233 239 246 302 122 129 104 96 101 122 354 160 168 179 200 204 195 188 196 187 159 155 151 162 160 167 165 161 172 139 151 211 253 271 284 297 309 298 310 321 330 344 3
247 237 264 304 303 266 235 321 123 99 107 119 120 129 149 113 248 216 171 178 186 187 173 174 162 155 160 153 163 165 169 170 168 164 159 169 221 291 295 306 309 345 326 309 323 329 347 346 358
256 304 345 332 334 293 314 285 211 169 110 167 165 186 173 157 175 200 173 186 186 176 165 172 171 162 156 160 162 173 168 170 165 155 161 224 277 304 309 332 336 343 331 315 329 350 350 2 1
261 336 287 286 286 324 296 75 242 105 4 301 267 228 192 157 165 177 200 196 165 167 170 186 185 165 157 168 163 173 179 161 169 168 205 227 296 282 289 312 328 335 326 322 328 353 3 6 352
303 329 335 318 291 347 263 172 358 350 303 356 359 344 224 178 171 178 216 200 164 169 180 186 179 161 151 157 158 162 157 159 149 143 147 116 252 233 264 301 320 327 319 319 323 342 346 352 351
12 3 327 335 348 247 359 79 230 338 348 356 6 19 166 196 164 237 211 175 161 178 181 185 169 143 142 143 153 162 151 150 159 193 192 228 258 211 260 307 316 319 320 324 326 327 340 324 328
276 157 241 293 272 290 350 101 283 249 343 353 37 54 69 40 187 209 186 174 166 175 172 164 145 138 147 143 118 131 139 150 241 277 279 260 249 271 300 301 305 316 321 325 325 320 323 317 320
247 263 203 223 356 12 237 55 350 351 355 10 33 25 21 2 219 322 175 174 172 173 167 150 140 144 149 150 104 131 52 284 283 292 315 226 232 251 279 286 309 323 323 324 326 318 321 323 310
17 266 350 34 224 272 274 302 207 328 359 5 7 15 45 41 49 330 191 161 160 165 153 149 143 135 148 190 159 182 199 289 339 333 330 280 275 288 313 320 320 329 331 326 319 311 316 321 319
318 317 353 111 137 185 253 233 353 24 56 359 7 74 79 125 100 26 59 134 140 135 148 147 168 158 165 190 184 183 187 225 299 323 320 278 281 297 307 313 310 310 326 322 304 302 315 317 323
254 232 139 126 282 209 184 207 252 225 356 269 84 114 121 113 124 157 135 127 133 152 169 171 177 179 177 190 202 207 220 250 301 323 328 294 272 285 290 295 297 298 308 313 309 307 308 309 308